TimeCDT,TemperatureF,Dew PointF,Humidity,Sea Level PressureIn,VisibilityMPH,Wind Direction,Wind SpeedMPH,Gust SpeedMPH,PrecipitationIn,Events,Conditions,WindDirDegrees,DateUTC
12:15 AM,62.2,41.4,46,29.90,10.0,North,8.1,-,N/A,,Overcast,10,2013-05-01 05:15:00
12:35 AM,61.7,39.7,44,29.92,10.0,North,6.9,18.4,N/A,,Overcast,350,2013-05-01 05:35:00
12:55 AM,59.9,42.1,52,29.93,10.0,North,12.7,26.5,N/A,,Overcast,10,2013-05-01 05:55:00
1:15 AM,58.3,40.8,52,29.92,10.0,North,15.0,24.2,N/A,,Overcast,10,2013-05-01 06:15:00
1:35 AM,57.4,41.5,56,29.95,10.0,North,11.5,23.0,N/A,,Overcast,360,2013-05-01 06:35:00
2:15 AM,54.7,42.6,64,29.98,10.0,North,10.4,21.9,N/A,,Overcast,350,2013-05-01 07:15:00
2:35 AM,52.7,42.8,69,30.00,10.0,North,10.4,19.6,N/A,,Mostly Cloudy,350,2013-05-01 07:35:00
3:15 AM,52.2,42.3,69,29.98,10.0,North,12.7,24.2,N/A,,Mostly Cloudy,10,2013-05-01 08:15:00
3:35 AM,51.8,41.4,68,30.01,10.0,North,12.7,23.0,N/A,Thunderstorm,Mostly Cloudy,360,2013-05-01 08:35:00
3:55 AM,51.4,40.3,66,30.03,10.0,North,16.1,25.3,N/A,,Overcast,350,2013-05-01 08:55:00
4:15 AM,51.3,41.0,68,30.03,10.0,NNE,15.0,25.3,N/A,,Overcast,20,2013-05-01 09:15:00
4:35 AM,50.9,41.0,69,30.04,10.0,NNE,11.5,23.0,N/A,,Overcast,20,2013-05-01 09:35:00
4:55 AM,50.5,41.0,70,30.05,10.0,North,9.2,23.0,N/A,,Overcast,360,2013-05-01 09:55:00
5:15 AM,50.0,41.0,71,30.05,10.0,NNE,11.5,23.0,N/A,,Overcast,20,2013-05-01 10:15:00
5:35 AM,49.6,40.1,70,30.07,10.0,North,8.1,20.7,N/A,,Overcast,10,2013-05-01 10:35:00
5:55 AM,49.6,40.1,70,30.08,10.0,NNE,12.7,23.0,N/A,,Overcast,30,2013-05-01 10:55:00
6:15 AM,49.5,40.1,70,30.09,10.0,North,6.9,-,N/A,,Overcast,350,2013-05-01 11:15:00
6:35 AM,49.3,39.7,70,30.09,10.0,NNE,8.1,21.9,N/A,,Overcast,20,2013-05-01 11:35:00
6:55 AM,49.1,40.1,71,30.11,10.0,NNE,10.4,23.0,N/A,,Overcast,30,2013-05-01 11:55:00
7:15 AM,48.6,40.5,74,30.14,10.0,North,9.2,24.2,N/A,,Overcast,360,2013-05-01 12:15:00
7:35 AM,48.4,40.6,75,30.15,10.0,NNE,8.1,17.3,N/A,,Overcast,20,2013-05-01 12:35:00
8:15 AM,48.2,41.0,76,30.15,10.0,North,11.5,19.6,N/A,,Overcast,360,2013-05-01 13:15:00
8:35 AM,47.8,40.6,76,30.15,10.0,North,13.8,23.0,N/A,,Overcast,360,2013-05-01 13:35:00
8:55 AM,47.5,40.8,78,30.17,10.0,North,6.9,21.9,N/A,,Overcast,10,2013-05-01 13:55:00
9:15 AM,46.6,39.9,78,30.17,10.0,North,15.0,24.2,N/A,,Overcast,360,2013-05-01 14:15:00
9:35 AM,45.5,38.7,77,30.18,10.0,North,15.0,27.6,N/A,,Overcast,350,2013-05-01 14:35:00
10:15 AM,43.9,37.6,78,30.22,10.0,North,9.2,20.7,N/A,,Overcast,350,2013-05-01 15:15:00
10:35 AM,43.2,37.4,80,30.21,10.0,North,13.8,20.7,N/A,,Overcast,360,2013-05-01 15:35:00
10:55 AM,43.5,37.6,80,30.21,10.0,NNE,11.5,20.7,N/A,,Overcast,20,2013-05-01 15:55:00
11:15 AM,43.7,36.9,77,30.22,10.0,NNE,11.5,23.0,N/A,,Overcast,20,2013-05-01 16:15:00
11:35 AM,43.7,36.7,76,30.21,10.0,North,15.0,23.0,N/A,,Overcast,10,2013-05-01 16:35:00
11:55 AM,43.3,36.5,77,30.23,10.0,North,8.1,20.7,N/A,,Overcast,10,2013-05-01 16:55:00
12:15 PM,43.0,36.3,77,30.24,10.0,NNE,11.5,21.9,N/A,,Overcast,20,2013-05-01 17:15:00
12:35 PM,43.0,36.5,78,30.25,10.0,NNE,11.5,19.6,N/A,,Overcast,20,2013-05-01 17:35:00
12:55 PM,41.5,37.6,86,30.25,3.0,North,12.7,19.6,N/A,,Drizzle,350,2013-05-01 17:55:00
1:15 PM,40.1,37.8,91,30.26,2.5,North,9.2,18.4,N/A,Rain,Light Rain,350,2013-05-01 18:15:00
1:35 PM,39.2,37.4,93,30.26,3.0,North,9.2,18.4,0.01,Rain,Light Rain,350,2013-05-01 18:35:00
2:15 PM,39.2,37.4,93,30.27,3.0,NNW,11.5,19.6,0.03,Rain,Rain,340,2013-05-01 19:15:00
2:35 PM,37.6,35.8,93,30.29,3.0,North,10.4,18.4,0.06,Rain,Rain,350,2013-05-01 19:35:00
2:55 PM,37.4,35.8,94,30.29,2.5,North,9.2,20.7,0.11,Rain,Rain,350,2013-05-01 19:55:00
3:15 PM,37.4,35.8,94,30.30,3.0,North,10.4,16.1,0.02,Rain,Rain,360,2013-05-01 20:15:00
3:35 PM,37.4,35.8,94,30.30,5.0,North,12.7,19.6,0.05,Rain,Light Rain,350,2013-05-01 20:35:00
3:55 PM,37.0,35.2,93,30.30,7.0,North,10.4,18.4,0.06,,Drizzle,350,2013-05-01 20:55:00
4:15 PM,36.7,34.9,93,30.31,4.0,North,9.2,20.7,0.01,Rain,Rain,360,2013-05-01 21:15:00
4:35 PM,36.5,34.7,93,30.32,5.0,North,5.8,19.6,0.03,Rain,Rain,360,2013-05-01 21:35:00
4:55 PM,36.5,34.7,93,30.32,5.0,North,10.4,21.9,0.03,Rain-Thunderstorm,Rain,350,2013-05-01 21:55:00
5:15 PM,36.1,34.2,93,30.31,4.0,North,13.8,21.9,0.01,Rain,Light Rain,360,2013-05-01 22:15:00
5:35 PM,35.8,34.2,94,30.33,1.2,North,9.2,18.4,0.10,Rain,Heavy Rain,360,2013-05-01 22:35:00
6:15 PM,35.6,33.8,93,30.34,2.5,North,11.5,20.7,0.03,Rain,Rain,360,2013-05-01 23:15:00
6:35 PM,35.1,33.3,93,30.36,2.5,North,9.2,20.7,0.08,,Overcast,360,2013-05-01 23:35:00
6:55 PM,34.7,32.9,93,30.34,2.5,North,10.4,19.6,0.11,Rain,Light Rain,350,2013-05-01 23:55:00
7:15 PM,34.3,32.9,94,30.36,1.2,North,5.8,-,0.04,Snow,Light Snow,350,2013-05-02 00:15:00
7:35 PM,34.7,32.9,93,30.35,2.0,North,9.2,19.6,0.09,,Overcast,350,2013-05-02 00:35:00
7:55 PM,34.7,32.9,93,30.34,2.5,North,8.1,18.4,0.14,,Overcast,360,2013-05-02 00:55:00
8:35 PM,34.7,33.3,94,30.37,3.0,NNW,9.2,16.1,0.09,Rain-Thunderstorm,Rain,330,2013-05-02 01:35:00
8:55 PM,34.9,33.4,94,30.37,7.0,North,11.5,17.3,0.12,Rain,Light Rain,360,2013-05-02 01:55:00
9:35 PM,34.9,33.4,94,30.39,5.0,NNW,11.5,19.6,0.02,Rain,Light Rain,340,2013-05-02 02:35:00
9:55 PM,34.9,33.3,94,30.39,5.0,North,11.5,23.0,0.05,Rain-Thunderstorm,Light Thunderstorms and Rain,360,2013-05-02 02:55:00
10:15 PM,34.9,33.3,94,30.37,4.0,North,8.1,16.1,0.02,,Overcast,10,2013-05-02 03:15:00
10:35 PM,35.2,33.8,94,30.41,7.0,North,8.1,-,0.05,Rain,Light Rain,360,2013-05-02 03:35:00
10:55 PM,35.1,33.3,93,30.38,4.0,North,8.1,23.0,0.06,Snow,Light Snow,360,2013-05-02 03:55:00
11:15 PM,34.7,33.1,94,30.39,2.0,North,8.1,-,N/A,Snow,Light Snow,350,2013-05-02 04:15:00
11:35 PM,34.3,33.1,95,30.41,2.5,North,6.9,19.6,0.02,Snow,Light Snow,360,2013-05-02 04:35:00
11:55 PM,34.0,32.9,96,30.42,1.8,NNW,5.8,-,0.02,Snow,Light Snow,340,2013-05-02 04:55:00